Regional Weather Roundup
Issued by NWS

Home | Current Version | Previous Version | Graphics & Text | Print | Product List | Glossary On
Versions: 1 2 3 4 5 6 7 8 9 10 11 12 13 14 15 16 17 18 19 20 21 22 23 24 25 26 27 28 29 30 31 32 33 34 35 36 37 38 39 40 41 42 43 44 45 46 47 48 49 50
000
ASUS43 KFSD 041702
RWRSD

WEATHER ROUNDUP FOR SOUTH DAKOTA
NATIONAL WEATHER SERVICE SIOUX FALLS SD
1200 PM CDT SAT JUL 04 2015

NOTE: "FAIR" INDICATES FEW OR NO CLOUDS BELOW 12,000 FEET WITH NO
SIGNIFICANT WEATHER AND/OR OBSTRUCTIONS TO VISIBILITY.


SDZ001>005-009-010-012>017-041800-
NORTHWEST AND NORTH CENTRAL SOUTH DAKOTA

CITY           SKY/WX    TMP DP  RH WIND       PRES   REMARKS
BUFFALO          N/A     83  61  47 CALM      29.77F
FAITH            N/A     81  65  58 S14       29.81F
MOBRIDGE       SUNNY     81  69  67 SE14      29.79F
$$

SDZ012>016-024>037-041>051-057-063-072>074-041800-
SOUTHWEST AND SOUTH CENTRAL SOUTH DAKOTA

CITY           SKY/WX    TMP DP  RH WIND       PRES   REMARKS
RAPID CTY ARPT SUNNY     82  68  62 S6        29.84F
PIERRE         MOSUNNY   81  68  64 S10       29.81F
CUSTER         SUNNY     80  53  39 VRB5      30.00S
ELLSWORTH AFB  SUNNY     82  65  56 NW5       29.84R
PHILIP         MOSUNNY   85  67  54 S12       29.81F
PINE RIDGE     SUNNY     82  65  56 S14       29.88F
WINNER         FAIR      84  59  42 S14       29.87F
$$

SDZ004>011-016>023-039-040-041800-
NORTHEAST SOUTH DAKOTA

CITY           SKY/WX    TMP DP  RH WIND       PRES   REMARKS
ABERDEEN       SUNNY     80  68  66 S14       29.85F
WATERTOWN      SUNNY     78  65  63 S12       29.91F
BROOKINGS      SUNNY     75  64  69 S13       29.95F
SISSETON         N/A     80  64  58 S12       29.87F
$$

SDZ017-020-022-023-036>040-048>070-041800-
SOUTHEAST SOUTH DAKOTA

CITY           SKY/WX    TMP DP  RH WIND       PRES   REMARKS
SIOUX FALLS    PTSUNNY   78  65  63 S7        29.94F
HURON          MOSUNNY   79  67  66 S13       29.87S
MITCHELL       MOSUNNY   80  69  69 SE13      29.89F
YANKTON        PTSUNNY   79  64  61 S9G17     29.92F
$$

ABBREVIATIONS USED IN REMARKS
   TC - TEMPERATURE IN CELSIUS
  WCI - WIND CHILL INDEX
   HX - HEAT INDEX
  VSB - VISIBILITY




USA.gov is the U.S. government's official web portal to all federal, state and local government web resources and services.